Lid_Strength_Index
-0 -0 1 1 1 2 2 2 3 3 3 3 3 3 4 4 3 3 3 3 3 3 3 4 3 2 5 9 9 6 3 3 4 4 6 7 8 9 11 10 10 11 11 10 9 10 11
-1 -1 -0 -0 1 2 2 2 3 3 3 4 4 5 5 4 4 3 3 3 3 3 3 4 4 3 7 11 6 6 5 4 5 5 6 7 8 8 10 10 11 10 11 10 10 10 10
-1 -1 -1 -1 -0 0 1 2 2 3 3 3 4 4 4 4 4 3 3 3 2 2 3 4 4 6 8 9 6 6 5 5 5 5 7 6 7 9 9 11 9 10 13 11 11 11 11
0 1 -1 -1 -1 -1 -0 0 2 2 2 3 3 4 4 5 5 5 4 4 3 2 3 4 5 6 9 5 5 6 5 6 5 5 6 6 6 8 9 9 10 12 13 15 11 11 11
1 1 1 1 -1 -1 -1 -0 -0 1 2 3 3 4 4 5 5 5 5 4 4 4 4 4 7 7 10 5 7 6 6 7 6 5 6 7 7 9 10 12 13 13 16 14 13 11 12
1 1 2 1 1 1 -0 -1 -0 -0 1 3 3 4 4 4 5 5 4 4 5 6 7 8 9 10 9 10 7 6 6 6 6 7 7 8 9 12 12 13 16 15 15 14 16 14 13
2 1 1 2 1 1 1 0 0 0 0 1 2 3 4 4 5 5 5 6 8 10 9 11 10 9 9 8 6 7 6 8 7 9 12 10 13 15 13 12 13 14 15 16 14 14 15
1 2 2 1 2 2 2 1 1 -1 -0 0 1 2 2 4 5 5 6 9 9 8 13 10 10 10 9 8 10 9 7 10 10 13 11 13 15 12 12 12 13 14 16 16 14 14 15
2 1 2 2 2 2 2 1 1 1 1 0 1 2 2 3 4 6 8 8 6 7 12 11 10 11 11 9 10 10 8 10 12 13 13 14 12 12 12 14 14 14 15 16 16 14 14
3 2 2 2 2 2 2 2 1 1 2 2 1 1 2 3 6 6 8 7 6 6 14 13 14 11 10 9 11 8 8 10 12 13 13 13 12 13 14 14 14 16 14 15 15 16 18
3 3 3 3 2 2 2 2 2 1 1 1 1 1 1 2 6 8 6 6 6 7 20 13 14 10 10 11 12 12 9 10 12 13 13 15 14 15 14 14 13 15 14 15 15 17 18
3 3 3 3 3 3 2 2 2 2 1 1 1 0 1 4 6 6 5 7 6 16 21 17 14 14 14 12 12 12 11 9 10 13 13 14 12 13 14 13 13 13 14 15 16 17 21
4 3 3 3 3 3 3 2 2 2 2 1 1 1 2 3 6 5 6 7 16 19 14 17 16 14 15 15 14 13 14 14 15 17 17 16 15 14 13 15 14 15 17 19 20 21 20
3 4 4 4 4 3 3 3 2 1 2 1 1 1 2 3 4 5 7 12 19 16 16 13 14 14 16 15 15 14 15 16 14 15 16 17 19 16 14 15 15 16 16 18 22 22 19
4 4 4 4 4 4 4 3 3 3 1 1 1 0 2 3 4 5 10 16 16 14 12 13 14 16 16 15 15 15 15 16 14 13 15 16 17 15 14 14 15 17 19 16 19 23 20
3 4 4 4 5 4 4 4 3 3 2 1 2 2 3 2 3 7 13 15 15 11 11 12 16 14 17 16 17 16 16 14 13 13 11 14 19 17 16 14 15 16 15 20 19 23 22
3 4 4 5 5 5 4 4 3 3 2 1 3 6 3 2 3 9 15 14 12 10 11 13 14 14 14 16 16 17 16 14 13 13 11 14 14 19 17 18 18 19 19 18 17 18 20
4 4 4 4 5 5 4 4 3 3 3 3 4 10 2 2 11 12 14 13 10 10 10 11 12 13 13 13 15 16 16 14 13 13 15 12 15 20 18 17 15 17 17 16 18 19 20
4 4 4 4 5 5 5 4 4 3 3 4 6 6 3 3 12 12 10 9 9 11 11 11 12 11 11 13 16 15 14 15 14 13 14 13 17 22 19 18 17 18 17 16 16 16 21
4 4 4 4 4 5 5 5 4 3 3 4 6 12 8 7 8 9 11 11 12 9 10 10 10 10 12 13 13 15 14 14 13 14 12 12 16 18 18 16 17 20 18 17 17 20 18
4 4 4 4 4 4 5 5 4 2 3 4 7 11 10 12 11 9 9 10 11 12 9 9 12 11 11 14 15 15 13 14 14 13 14 13 19 19 19 18 17 17 18 17 18 16 17
4 4 4 4 4 4 5 5 5 3 2 6 10 11 10 10 9 10 9 11 11 10 10 11 11 10 10 12 12 14 14 14 14 14 15 14 19 18 20 19 18 19 17 18 18 19 19
4 4 4 5 5 4 4 5 5 4 3 7 6 5 7 10 10 10 11 11 10 8 8 8 9 10 11 10 9 9 10 11 12 13 15 15 17 19 20 19 19 20 19 18 18 17 16
4 4 4 4 5 5 4 4 5 4 4 5 6 6 9 13 11 11 9 8 9 8 10 8 7 9 8 7 7 9 9 10 11 11 12 15 15 16 19 19 21 17 15 15 16 16 14
3 4 4 5 4 5 5 5 5 4 4 5 4 7 9 12 10 10 10 9 8 7 8 8 7 6 5 7 12 13 14 14 13 13 13 13 14 15 17 19 17 15 16 16 17 15 13
3 4 4 4 4 4 4 4 4 4 4 5 5 4 8 11 12 9 10 9 11 10 10 10 6 4 6 9 12 16 17 15 15 14 12 14 12 15 16 19 21 15 13 13 13 18 12
2 3 3 4 4 4 4 4 4 4 4 5 5 4 7 11 9 9 10 10 7 8 10 10 9 8 6 11 14 15 16 13 16 16 18 17 17 17 16 17 18 13 13 12 17 15 11
1 2 3 3 3 4 4 4 4 4 3 4 5 3 6 10 9 7 7 9 8 7 10 10 9 9 10 12 13 13 14 13 14 13 16 15 16 17 16 18 20 13 14 15 11 11 11
0 1 2 2 3 3 3 4 3 3 3 3 6 3 3 7 8 6 5 5 5 4 6 7 8 9 8 11 11 11 13 12 14 16 12 15 13 14 14 16 11 12 12 10 11 10 11